Regional Weather Roundup
Issued by NWS

Home | Current Version | Previous Version | Text Only | Print | Product List | Glossary Off
Versions: 1 2 3 4 5 6 7 8 9 10 11 12 13 14 15 16 17 18 19 20 21 22 23 24 25 26 27 28 29 30 31 32 33 34 35 36 37 38 39 40 41 42 43 44 45 46 47 48 49 50

000
ASUS43 KOAX 271210
RWRNE

WEATHER ROUNDUP FOR NEBRASKA
NATIONAL WEATHER SERVICE OMAHA NE
600 AM CST TUE JAN 27 2015

NOTES: SATELLITE DATA IS BEING USED TO AUGMENT CLOUD COVER ABOVE
       12000 FEET.
       "FAIR" INDICATES FEW OR NO CLOUDS BELOW 12,000 FEET WITH NO
       SIGNIFICANT WEATHER AND/OR OBSTRUCTIONS TO VISIBILITY.

  * THESE STATIONS DO NOT REPORT WEATHER SUCH AS RAIN...SNOW OR FOG.

NEZ001>004-019>022-054>056-271300-
NEBRASKA PANHANDLE

CITY           SKY/WX    TMP DP  RH WIND       PRES   REMARKS
SCOTTSBLUFF    PTCLDY    29  26  89 N5        30.07S WCI  24
6HR MIN TEMP:  29; 6HR MAX TEMP:  40;

ALLIANCE       CLEAR     30  26  85 W8        30.04F WCI  22
6HR MIN TEMP:  27; 6HR MAX TEMP:  34;

CHADRON        PTCLDY    34  28  79 SW7       30.02F WCI  28
6HR MIN TEMP:  32; 6HR MAX TEMP:  38;

KIMBALL        PTCLDY    34  25  69 W7        30.08F WCI  28
SIDNEY         CLEAR     34  26  72 W8        30.08F WCI  27
6HR MIN TEMP:  29; 6HR MAX TEMP:  39;

$$

NEZ057>060-069>072-079>082-271300-
SOUTHWEST NEBRASKA

CITY           SKY/WX    TMP DP  RH WIND       PRES   REMARKS
NORTH PLATTE   PTCLDY    25  23  92 W5        30.04F WCI  19
6HR MIN TEMP:  24; 6HR MAX TEMP:  30;

IMPERIAL       PTCLDY    29  23  78 W3        30.06F
6HR MIN TEMP:  28; 6HR MAX TEMP:  41;

LEXINGTON      CLEAR     28  25  90 NW7       30.03F WCI  21
MCCOOK         PTCLDY    31  27  85 W8        30.06F WCI  23
6HR MIN TEMP:  30; 6HR MAX TEMP:  40;

OGALLALA       PTCLDY    31  28  89 W7        30.06S WCI  24
$$

NEZ005>010-023>029-035>040-094-271300-
NORTH CENTRAL NEBRASKA

CITY           SKY/WX    TMP DP  RH WIND       PRES   REMARKS
VALENTINE      PTCLDY    32  29  88 SW6       29.98S WCI  26
6HR MIN TEMP:  27; 6HR MAX TEMP:  34;

AINSWORTH      CLEAR     35  30  82 SW6       29.98S WCI  30
BROKEN BOW     CLEAR     31  27  85 N3        30.01S
6HR MIN TEMP:  28; 6HR MAX TEMP:  39;

O`NEILL        CLEAR     33  29  86 SE6       30.00S WCI  27
ORD            CLEAR     25  22  88 CALM      30.02S
6HR MIN TEMP:  23; 6HR MAX TEMP:  30;

THEDFORD       CLEAR     34  30  87 W5        30.01F WCI  30
$$

NEZ041-046>049-061>064-073>077-083>087-271300-
SOUTH CENTRAL NEBRASKA

CITY           SKY/WX    TMP DP  RH WIND       PRES   REMARKS
GRAND ISLAND   CLEAR     28  25  88 SE7       30.05F WCI  21
6HR MIN TEMP:  26; 6HR MAX TEMP:  33;

AURORA         CLEAR     34  31  88 SE6       30.05F WCI  28
HASTINGS       CLEAR     32  25  75 S3        30.04F
6HR MIN TEMP:  28; 6HR MAX TEMP:  37;

HEBRON         PTCLDY    24  21  89 CALM      30.09S
HOLDREGE       CLEAR     34  28  77 W3        30.04R
KEARNEY *      PTCLDY    28  25  86 S5        30.03F WCI  23
YORK           CLEAR     28  27  93 CALM      30.07S
$$

NEZ011>018-030>034-042>045-271300-
NORTHEAST NEBRASKA

CITY           SKY/WX    TMP DP  RH WIND       PRES   REMARKS
NORFOLK        CLEAR     27  24  89 CALM      30.05R
6HR MIN TEMP:  25; 6HR MAX TEMP:  36;

ALBION         CLEAR     26  22  88 SE3       30.04F
BLAIR          CLEAR     33  31  91 CALM      30.08R
COLUMBUS *     CLEAR     25  18  74 CALM      30.08S
FREMONT        CLEAR     27  26  94 CALM      30.09R
TEKAMAH        CLEAR     27  25  92 CALM      30.09R
6HR MIN TEMP:  27; 6HR MAX TEMP:  36;

WAYNE          CLEAR     24  22  93 CALM      30.07R
$$

NEZ050>053-065>068-078-088>093-271300-
SOUTHEAST NEBRASKA

CITY           SKY/WX    TMP DP  RH WIND       PRES   REMARKS
LINCOLN        CLEAR     25  23  92 CALM      30.10S
6HR MIN TEMP:  22; 6HR MAX TEMP:  32;

OMAHA EPPLEY   CLEAR     29  26  89 CALM      30.09S
6HR MIN TEMP:  27; 6HR MAX TEMP:  34;

BEATRICE       PTCLDY    23  20  89 CALM      30.08S
FALLS CITY     CLEAR     26  24  92 NW3       30.10R
6HR MIN TEMP:  26; 6HR MAX TEMP:  36;

NEBRASKA CITY  CLEAR     32  29  88 CALM      30.10R
PLATTSMOUTH    FAIR      30  28  90 SW5       30.09R WCI  25
$$

NEZ044-045-051>053-067-271300-
OMAHA AREA

CITY           SKY/WX    TMP DP  RH WIND       PRES   REMARKS
OMAHA EPPLEY   CLEAR     29  26  89 CALM      30.09S
6HR MIN TEMP:  27; 6HR MAX TEMP:  34;

BLAIR          CLEAR     33  31  91 CALM      30.08R
FREMONT        CLEAR     27  26  94 CALM      30.09R
MILLARD        CLEAR     28  27  94 CALM      30.09S
OFFUTT AFB     CLEAR     23  21  93 CALM      30.09R FOG
PLATTSMOUTH    FAIR      30  28  90 SW5       30.09R WCI  25
WAHOO          FAIR      27  25  91 CALM      30.09R
$$


USA.gov is the U.S. government's official web portal to all federal, state and local government web resources and services.